Location: Julian California
(33.0790°N, 116.6010°W)
Time: 00:06:55
(UTC-08:00)

Meteor 1-29 - Pass Details

Date: 19 May 2017
Orbit: 445 x 466 km, 97.7° (Epoch: 21 November)

Event Time Altitude Azimuth Distance (km) Brightness Sun altitude
Rises 20:54:45 0° 10° (N) 2,452 7.0 -14.0°
Reaches altitude 10° 20:56:47 10° 9° (N) 1,573 6.0 -14.3°
Maximum altitude 21:00:09 80° 284° (WNW) 455 2.9 -14.9°
Drops below altitude 10° 21:03:28 10° 196° (SSW) 1,556 5.4 -15.4°
Enters shadow 21:04:08 - 196° (SSW) 1,840 5.8 -15.6°
